Weather in Lukovskaya

Russia / Republic of North Ossetia — Alania     43°43′37″N   44°37′48″E
temp.,
°C
wind,
m/s
gust,
m/s
humid.,
%
clouds,
%
prec.,
mm/h
press.,
hPa
HPBL,
m
18 august, thu
thu1800:00+27sse11420 0.0 100711
03:00+25w34530 0.0 100752
06:00+25w35550 0.0 1007114
09:00+33wnw323396 0.0 1007727
12:00+38ene232452 0.0 10052542
15:00+40ne43205 0.0 10033300
18:00+38ne55230 0.0 1002796
21:00+29e49370 0.0 1004205
19 august, fri
fri1900:00+25wnw22480 0.0 100549
03:00+22wnw712735 0.0 1008492
06:00+21wsw688042 0.0 1008328
09:00+28wnw4544100 0.0 1008916
12:00+32nnw333336 0.0 10071342
15:00+35e22260 0.0 10062185
18:00+34e44275 0.0 1006686
21:00+27e5104442 0.0 1007293
20 august, sat
sat2000:00+22ene2470100 0.0 100869
03:00+21e1181100 0.0 100911
06:00+22w2274100 0.0 100977
09:00+26ene0154100 0.0 1010552
12:00+32ese3436100 0.0 10091254
15:00+35e11928100 0.0 10081676
18:00+28e101344100 0.0 1009779
21:00+24e7125486 0.0 1011623
21 august, sun
sun2100:00+22e2466100 0.0 101063
03:00+20wnw1166100 0.0 101017
06:00+19sw357594 0.0 1010167
09:00+26ene23477 0.0 1010765
12:00+34e6627100 0.0 10081685
15:00+34e11102466 0.0 10071796
18:00+27e1014350 0.0 1008856
21:00+23e713490 0.0 1009584
22 august, mon
mon2200:00+20ene33555 0.0 100949
03:00+18wsw22595 0.0 100833
06:00+18sw116712 0.0 101042
09:00+27e463684 0.0 1009864
12:00+34e10112093 0.0 10081889
15:00+33e11112410 0.0 10081880
18:00+27e9123587 0.0 10101099
21:00+22e712528 0.0 1012645